Location: ??????????
(54.8537°N, 38.8755°E)
Time: 03:01:50
(UTC+00:00)

Vanguard 2 Rocket - Pass Details

Date: 15 September 2024
Orbit: 553 x 3298 km, 32.9° (Epoch: 10 October)

Event Time Altitude Azimuth Distance (km) Brightness Sun altitude
Rises 23:32:48 0° 225° (SW) 4,784 - -26.4°
Reaches altitude 10° 23:36:11 10° 214° (SSW) 4,174 - -26.1°
Exits shadow 23:42:21 25° 182° (S) 3,705 9.5 -25.5°
Maximum altitude 23:45:34 27° 162° (SSE) 3,839 9.7 -25.2°
Drops below altitude 10° 23:58:42 10° 114° (ESE) 5,948 11.3 -23.9°
Sets 00:04:50 0° 105° (ESE) 7,189 11.9 -23.3°
